AB4CZ-1 Weather Reports


time (UTC)temp
C
wind
direction
speed
KPH
gust
KPH
rain 1hr
cm
rain 24hr
cm
rain mn
cm
humidity
%
barometer
mb
20260505210633 26 67 1.6 8.0 0.00 0.00 0.00 37 1013.9
20260505205756 26 0 0.0 6.4 0.00 0.00 0.00 37 1014.0
20260505205634 26 0 0.0 6.4 0.00 0.00 0.00 37 1014.0
20260505205134 26 0 0.0 8.0 0.00 0.00 0.00 38 1014.0
20260505204133 26 0 0.0 0.0 0.00 0.00 0.00 40 1014.0
20260505203848 26 0 0.0 3.2 0.00 0.00 0.00 36 1014.1
20260505203633 26 0 0.0 3.2 0.00 0.00 0.00 36 1014.1
20260505203132 26 0 0.0 12.9 0.00 0.00 0.00 38 1014.1
20260505195133 26 0 0.0 12.9 0.00 0.00 0.00 40 1014.8
20260505194636 27 0 0.0 0.0 0.00 0.00 0.00 37 1014.9
20260505194132 27 0 0.0 0.0 0.00 0.00 0.00 40 1014.9
20260505193132 26 0 0.0 0.0 0.00 0.00 0.00 39 1014.9
20260505192633 26 0 0.0 11.3 0.00 0.00 0.00 41 1014.8
20260505191632 26 124 1.6 12.9 0.00 0.00 0.00 42 1014.9
20260505190633 26 0 0.0 8.0 0.00 0.00 0.00 40 1015.0
20260505190132 26 0 0.0 19.3 0.00 0.00 0.00 41 1015.0
20260505184726 27 0 0.0 11.3 0.00 0.00 0.00 40 1015.2
20260505184632 27 0 0.0 11.3 0.00 0.00 0.00 40 1015.2
20260505184136 26 0 0.0 0.0 0.00 0.00 0.00 39 1015.3
20260505183133 26 0 0.0 1.6 0.00 0.00 0.00 39 1015.5
20260505182632 26 0 0.0 1.6 0.00 0.00 0.00 38 1015.5
20260505182136 27 0 0.0 11.3 0.00 0.00 0.00 39 1015.5
20260505181632 27 0 0.0 11.3 0.00 0.00 0.00 41 1015.8
20260505180632 27 0 0.0 0.0 0.00 0.00 0.00 41 1015.8
20260505180132 27 0 0.0 0.0 0.00 0.00 0.00 41 1015.9
20260505175635 26 0 0.0 0.0 0.00 0.00 0.00 40 1016.0
20260505175147 26 0 0.0 0.0 0.00 0.00 0.00 40 1015.9
20260505174234 26 0 0.0 6.4 0.00 0.00 0.00 40 1016.2
20260505174132 26 0 0.0 6.4 0.00 0.00 0.00 40 1016.2
20260505173632 26 0 0.0 11.3 0.00 0.00 0.00 39 1016.2
20260505172633 26 104 3.2 16.1 0.00 0.00 0.00 42 1016.2
20260505171648 26 0 0.0 9.7 0.00 0.00 0.00 42 1016.3
20260505170134 26 0 0.0 4.8 0.00 0.00 0.00 41 1016.3
20260505165632 26 0 0.0 0.0 0.00 0.00 0.00 41 1016.2
20260505164632 26 0 0.0 12.9 0.00 0.00 0.00 42 1016.2
20260505164134 26 90 3.2 12.9 0.00 0.00 0.00 41 1016.1
20260505162633 26 0 0.0 11.3 0.00 0.00 0.00 40 1016.4
20260505161633 26 0 0.0 0.0 0.00 0.00 0.00 44 1016.4
20260505153132 25 0 0.0 16.1 0.00 0.00 0.00 46 1016.7
20260505152133 25 0 0.0 0.0 0.00 0.00 0.00 44 1016.7
20260505151632 25 0 0.0 0.0 0.00 0.00 0.00 46 1016.6
20260505151353 25 0 0.0 0.0 0.00 0.00 0.00 49 1016.9
20260505151137 25 0 0.0 0.0 0.00 0.00 0.00 49 1016.9
20260505150632 25 0 0.0 0.0 0.00 0.00 0.00 47 1017.0
20260505150141 25 0 0.0 0.0 0.00 0.00 0.00 49 1017.1
20260505140633 22 0 0.0 0.0 0.00 0.00 0.00 60 1017.0
20260505140143 22 0 0.0 0.0 0.00 0.00 0.00 59 1016.9
20260505124725 15 0 0.0 0.0 0.00 0.00 0.00 85 1016.4
20260505124632 15 0 0.0 0.0 0.00 0.00 0.00 85 1016.4
20260505123134 13 0 0.0 0.0 0.00 0.00 0.00 90 1016.3
20260505122641 12 0 0.0 0.0 0.00 0.00 0.00 93 1016.4
20260505121634 11 0 0.0 0.0 0.00 0.00 0.00 95 1016.3
20260505115635 10 0 0.0 0.0 0.00 0.00 0.00 96 1016.4
20260505115132 10 0 0.0 0.0 0.00 0.00 0.00 96 1016.3
20260505114632 10 0 0.0 0.0 0.00 0.00 0.00 96 1016.1
20260505114135 10 0 0.0 0.0 0.00 0.00 0.00 96 1016.1
20260505113139 9 0 0.0 0.0 0.00 0.00 0.00 96 1015.9
20260505112645 9 0 0.0 0.0 0.00 0.00 0.00 95 1015.8
20260505111634 9 0 0.0 0.0 0.00 0.00 0.00 95 1015.6
20260505111132 9 0 0.0 0.0 0.00 0.00 0.00 95 1015.8
20260505110641 9 0 0.0 0.0 0.00 0.00 0.00 95 1015.5
20260505110132 9 0 0.0 0.0 0.00 0.00 0.00 95 1015.4
20260505102140 9 0 0.0 0.0 0.00 0.00 0.00 95 1015.5
20260505101632 9 0 0.0 0.0 0.00 0.00 0.00 94 1015.4
20260505101137 9 0 0.0 0.0 0.00 0.00 0.00 94 1015.6
20260505100132 9 0 0.0 0.0 0.00 0.00 0.00 94 1015.8
20260505095132 9 0 0.0 0.0 0.00 0.00 0.00 94 1015.5
20260505094132 9 0 0.0 0.0 0.00 0.00 0.00 94 1015.5
20260505092632 10 0 0.0 0.0 0.00 0.00 0.00 93 1015.5
20260505092416 10 0 0.0 0.0 0.00 0.00 0.00 93 1015.4
20260505092132 10 0 0.0 0.0 0.00 0.00 0.00 93 1015.4
20260505091633 10 0 0.0 0.0 0.00 0.00 0.00 93 1015.5
20260505090633 10 0 0.0 0.0 0.00 0.00 0.00 93 1015.8
20260505090132 10 0 0.0 0.0 0.00 0.00 0.00 93 1015.8
20260505085634 10 0 0.0 0.0 0.00 0.00 0.00 92 1015.8
20260505085132 10 0 0.0 0.0 0.00 0.00 0.00 92 1015.8
20260505084633 10 0 0.0 0.0 0.00 0.00 0.00 92 1015.9
20260505083632 10 0 0.0 0.0 0.00 0.00 0.00 92 1015.8
20260505083145 10 0 0.0 0.0 0.00 0.00 0.00 92 1015.8
20260505082634 10 0 0.0 0.0 0.00 0.00 0.00 92 1015.8
20260505082151 10 0 0.0 0.0 0.00 0.00 0.00 92 1015.9
20260505081633 10 0 0.0 0.0 0.00 0.00 0.00 92 1016.0
20260505080632 10 0 0.0 0.0 0.00 0.00 0.00 91 1015.8
20260505080221 10 0 0.0 0.0 0.00 0.00 0.00 91 1015.8
20260505075632 10 0 0.0 0.0 0.00 0.00 0.00 91 1015.7
20260505074726 10 0 0.0 0.0 0.00 0.00 0.00 90 1015.8
20260505074645 10 0 0.0 0.0 0.00 0.00 0.00 90 1015.8
20260505074144 10 0 0.0 0.0 0.00 0.00 0.00 90 1015.7
20260505073633 10 0 0.0 0.0 0.00 0.00 0.00 90 1015.7
20260505073132 10 0 0.0 0.0 0.00 0.00 0.00 90 1015.7
20260505072132 11 0 0.0 0.0 0.00 0.00 0.00 89 1015.8
20260505071632 11 0 0.0 0.0 0.00 0.00 0.00 89 1015.8
20260505071132 11 0 0.0 0.0 0.00 0.00 0.00 89 1015.8
20260505070935 11 0 0.0 0.0 0.00 0.00 0.00 88 1015.6
20260505070651 11 0 0.0 0.0 0.00 0.00 0.00 88 1015.6
20260505070141 11 0 0.0 0.0 0.00 0.00 0.00 89 1015.7
20260505065632 11 0 0.0 0.0 0.00 0.00 0.00 88 1015.8
20260505065143 11 0 0.0 0.0 0.00 0.00 0.00 88 1015.8
20260505062634 11 0 0.0 0.0 0.00 0.00 0.00 88 1015.9
20260505062141 11 0 0.0 0.0 0.00 0.00 0.00 87 1015.9
20260505061633 11 0 0.0 0.0 0.00 0.00 0.00 86 1016.0
20260505061145 11 0 0.0 0.0 0.00 0.00 0.00 86 1015.9
20260505060633 11 0 0.0 0.0 0.00 0.00 0.00 86 1015.9
20260505060142 11 0 0.0 0.0 0.00 0.00 0.00 86 1015.9
20260505055147 11 0 0.0 0.0 0.00 0.00 0.00 85 1016.0
20260505054645 12 0 0.0 0.0 0.00 0.00 0.00 85 1016.0
20260505053145 12 0 0.0 0.0 0.00 0.00 0.00 84 1016.0
20260505052132 12 0 0.0 0.0 0.00 0.00 0.00 83 1016.0
20260505051638 12 0 0.0 0.0 0.00 0.00 0.00 83 1016.0
20260505051135 12 0 0.0 0.0 0.00 0.00 0.00 82 1016.0
20260505050728 12 0 0.0 0.0 0.00 0.00 0.00 82 1015.9
20260505050637 12 0 0.0 0.0 0.00 0.00 0.00 82 1015.9
20260505050141 12 0 0.0 0.0 0.00 0.00 0.00 82 1015.8
20260505041632 13 0 0.0 0.0 0.00 0.00 0.00 79 1015.9
20260505041132 13 0 0.0 0.0 0.00 0.00 0.00 79 1015.9
20260505034632 14 0 0.0 0.0 0.00 0.00 0.00 76 1016.1
20260505033632 14 0 0.0 0.0 0.00 0.00 0.00 74 1016.0
20260505033133 14 0 0.0 0.0 0.00 0.00 0.00 74 1016.1
20260505032811 15 0 0.0 0.0 0.00 0.00 0.00 74 1016.1
20260505032636 15 0 0.0 0.0 0.00 0.00 0.00 74 1016.1
20260505032132 15 0 0.0 0.0 0.00 0.00 0.00 74 1016.1
20260505031640 15 0 0.0 0.0 0.00 0.00 0.00 74 1016.1
20260505031446 15 0 0.0 0.0 0.00 0.00 0.00 72 1016.1
20260505031132 15 0 0.0 0.0 0.00 0.00 0.00 72 1016.1
20260505030138 15 0 0.0 0.0 0.00 0.00 0.00 72 1016.1
20260505025132 15 0 0.0 0.0 0.00 0.00 0.00 68 1016.1
20260505024632 15 0 0.0 0.0 0.00 0.00 0.00 67 1016.1
20260505024133 16 0 0.0 0.0 0.00 0.00 0.00 66 1016.1
20260505023632 16 0 0.0 0.0 0.00 0.00 0.00 67 1016.0
20260505023132 16 0 0.0 0.0 0.00 0.00 0.00 67 1016.0
20260505022132 16 0 0.0 0.0 0.00 0.00 0.00 65 1015.9
20260505021145 16 0 0.0 0.0 0.00 0.00 0.00 63 1015.9
20260505020242 17 0 0.0 0.0 0.00 0.00 0.00 62 1015.9
20260505020138 17 0 0.0 0.0 0.00 0.00 0.00 62 1015.9
20260505015632 17 0 0.0 0.0 0.00 0.00 0.00 61 1015.8
20260505015138 17 0 0.0 0.0 0.00 0.00 0.00 62 1015.8
20260505014632 17 0 0.0 0.0 0.00 0.00 0.00 61 1015.8
20260505014150 17 0 0.0 0.0 0.00 0.00 0.00 59 1015.8
20260505013632 17 0 0.0 0.0 0.00 0.00 0.00 58 1015.6
20260505013132 17 0 0.0 0.0 0.00 0.00 0.00 58 1015.5
20260505012633 17 0 0.0 0.0 0.00 0.00 0.00 58 1015.5
20260505012132 18 0 0.0 0.0 0.00 0.00 0.00 57 1015.5
20260505011633 18 0 0.0 0.0 0.00 0.00 0.00 56 1015.4
20260505010632 18 0 0.0 0.0 0.00 0.00 0.00 53 1015.5
20260505010132 18 0 0.0 0.0 0.00 0.00 0.00 52 1015.3
20260505005632 19 0 0.0 0.0 0.00 0.00 0.00 52 1015.3
20260505005132 19 0 0.0 0.0 0.00 0.00 0.00 52 1015.3
20260505004132 20 0 0.0 0.0 0.00 0.00 0.00 49 1015.1
20260505003632 20 0 0.0 0.0 0.00 0.00 0.00 48 1015.1
20260505003133 21 0 0.0 0.0 0.00 0.00 0.00 47 1015.0
20260505002632 21 0 0.0 0.0 0.00 0.00 0.00 46 1015.0
20260505002132 21 0 0.0 0.0 0.00 0.00 0.00 46 1015.0
20260505001632 21 0 0.0 0.0 0.00 0.00 0.00 44 1015.0
20260505001310 22 0 0.0 0.0 0.00 0.00 0.00 43 1014.8
20260505001132 22 0 0.0 0.0 0.00 0.00 0.00 43 1014.8
20260505000632 22 0 0.0 0.0 0.00 0.00 0.00 43 1014.8
20260505000132 22 0 0.0 0.0 0.00 0.00 0.00 43 1014.8
20260504234633 22 0 0.0 0.0 0.00 0.00 0.00 42 1014.8
20260504233632 23 0 0.0 0.0 0.00 0.00 0.00 41 1014.8
20260504232632 23 0 0.0 0.0 0.00 0.00 0.00 39 1014.8
20260504232132 23 0 0.0 0.0 0.00 0.00 0.00 40 1014.8
20260504231633 23 0 0.0 0.0 0.00 0.00 0.00 40 1014.9
20260504231132 24 0 0.0 0.0 0.00 0.00 0.00 40 1014.8
20260504230632 24 0 0.0 0.0 0.00 0.00 0.00 38 1014.9
20260504225132 24 0 0.0 0.0 0.00 0.00 0.00 39 1014.8
20260504224632 24 0 0.0 0.0 0.00 0.00 0.00 39 1014.8
20260504224138 24 0 0.0 0.0 0.00 0.00 0.00 37 1014.9
20260504223633 24 0 0.0 0.0 0.00 0.00 0.00 38 1014.9
20260504223132 24 0 0.0 0.0 0.00 0.00 0.00 38 1014.9
20260504222632 25 0 0.0 0.0 0.00 0.00 0.00 36 1014.8
20260504222132 25 0 0.0 1.6 0.00 0.00 0.00 36 1014.9
20260504222051 6 0 0.0 0.0 0.00 0.00 0.00 95 1018.1
20260504221132 25 0 0.0 0.0 0.00 0.00 0.00 35 1014.9
20260504220632 25 0 0.0 0.0 0.00 0.00 0.00 35 1014.8
20260504220132 25 0 0.0 0.0 0.00 0.00 0.00 34 1014.8
20260504215632 25 0 0.0 0.0 0.00 0.00 0.00 37 1014.8
20260504215400 25 0 0.0 6.4 0.00 0.00 0.00 36 1014.8
20260504215224 25 0 0.0 6.4 0.00 0.00 0.00 36 1014.8
20260504215147 25 0 0.0 6.4 0.00 0.00 0.00 36 1014.8
20260504214632 25 0 0.0 6.4 0.00 0.00 0.00 35 1014.8